Regional Weather Roundup
Issued by NWS Little Rock, AR

Home | Current Version | Previous Version | Graphics & Text | Print | Product List | Glossary On
Versions: 1 2 3 4 5 6 7 8 9 10 11 12 13 14 15 16 17 18 19 20 21 22 23 24 25 26 27 28 29 30 31 32 33 34 35 36 37 38 39 40 41 42 43 44 45 46 47 48 49 50
000
ASUS44 KLZK 180305
RWRLZK

WEATHER ROUNDUP FOR ARKANSAS
NATIONAL WEATHER SERVICE LITTLE ROCK AR
900 PM CST WED DEC 17 2014

NOTE: "FAIR" INDICATES FEW OR NO CLOUDS BELOW 12,000 FEET WITH NO
SIGNIFICANT WEATHER AND/OR OBSTRUCTIONS TO VISIBILITY.

ARZ001-003-010-029-180400-
NORTHWEST ARKANSAS

CITY           SKY/WX    TMP DP  RH WIND       PRES   REMARKS
FAYETTEVILLE   LGT RAIN  36  35  96 CALM      30.21R
FORT SMITH     RAIN      36  34  92 E6        30.26F FOG
HARRISON       RAIN      33  32  96 SE8       30.22F FOG     WCI  26
BENTONVILLE    CLOUDY    36  32  87 SE6       30.22R
ROGERS         MIX PCPN  35  34  96 E8        30.21R FOG     WCI  29
SILOAM SPGS    CLOUDY    36  28  75 CALM      30.23R
HIGHFILL       LGT RAIN  35 N/A N/A E3        30.20R
SPRINGDALE     LGT RAIN  36  34  93 E8        30.21S FOG
$$

ARZ004-005-016-180400-
NORTH CENTRAL ARKANSAS

CITY           SKY/WX    TMP DP  RH WIND       PRES   REMARKS
BATESVILLE     CLOUDY    36  34  93 CALM      30.28R
FLIPPIN        CLOUDY    36  30  80 NE3       30.26S
MTN HOME       RAIN      34  33  96 CALM      30.25S FOG
$$

ARZ040-041-180400-
WEST CENTRAL ARKANSAS

CITY           SKY/WX    TMP DP  RH WIND       PRES   REMARKS
MENA           CLOUDY    37  36  93 NE3       30.23R
MOUNT IDA      LGT RAIN  37  35  92 CALM      30.20F
$$

ARZ009-017-025-026-028-180400-
NORTHEAST ARKANSAS

CITY           SKY/WX    TMP DP  RH WIND       PRES   REMARKS
CORNING        LGT RAIN  37  34  87 NE5       30.27F
JONESBORO      CLOUDY    37  35  92 E7        30.25F
NEWPORT        LGT RAIN  37  35  92 CALM      30.29R
WALNUT RIDGE   CLOUDY    37  30  75 N3        30.26R
BLYTHEVILLE    LGT RAIN  37  33  85 NE5       30.27F
$$

ARZ022-023-033-042-044-180400-
CENTRAL ARKANSAS

CITY           SKY/WX    TMP DP  RH WIND       PRES   REMARKS
LITTLE ROCK    LGT RAIN  40  31  70 N5        30.29R
N LITTLE ROCK  CLOUDY    38  33  81 N5        30.29R
JACKSONVILLE   LGT RAIN  39  32  77 N8        30.27R
SEARCY         CLOUDY    37  34  89 N6        30.29R
HOT SPRINGS    RAIN      37  33  85 E6        30.26R FOG
RUSSELLVILLE   RAIN      37  36  96 CALM      30.29R FOG
CLINTON        LGT RAIN  37  34  87 CALM      30.31R
$$

ARZ036-180400-
EAST ARKANSAS

CITY           SKY/WX    TMP DP  RH WIND       PRES   REMARKS
WEST MEMPHIS   CLOUDY    39  33  79 E12       30.23F
$$

ARZ050-053-066-070-073-180400-
SOUTHWEST ARKANSAS

CITY           SKY/WX    TMP DP  RH WIND       PRES   REMARKS
ARKADELPHIA    RAIN      39  38  97 NE8       30.24S FOG
CAMDEN         CLOUDY    43  32  65 MISG      30.25R
TEXARKANA      CLOUDY    40  35  83 NE7       30.21F
EL DORADO      CLOUDY    46  37  71 N8        30.22R
DE QUEEN       LGT RAIN  38  36  92 E5        30.23R
$$

ARZ056-057-069-180400-
SOUTHEAST ARKANSAS

CITY           SKY/WX    TMP DP  RH WIND       PRES   REMARKS
PINE BLUFF     LGT RAIN  40  33  76 NE8       30.24R
STUTTGART      CLOUDY    39  32  75 NE7       30.26R
MONTICELLO     CLOUDY    43  36  76 NE6       30.21F

$$





USA.gov is the U.S. government's official web portal to all federal, state and local government web resources and services.